Regional Weather Roundup
Issued by NWS

Home | Current Version | Previous Version | Text Only | Print | Product List | Glossary On
Versions: 1 2 3 4 5 6 7 8 9 10 11 12 13 14 15 16 17 18 19 20 21 22 23 24 25 26 27
000
ASUS44 KJAN 100310
RWRMS

MISSISSIPPI HOURLY WEATHER ROUNDUP
NATIONAL WEATHER SERVICE JACKSON MS
900 PM CST FRI DEC 09 2022

NOTE: "FAIR: INDICATES FEW OR NO CLOUDS BELOW 12,000 FEET WITH NO
SIGNIFICANT WEATHER AND/OR OBSTRUCTIONS TO VISIBILITY.

MSZ001>002-007>008-010>013-018>021-025>028-034>036-100400-
NORTHWEST MISSISSIPPI

CITY           SKY/WX    TMP DP  RH WIND       PRES   REMARKS
BATESVILLE     FAIR      55  54  94 CALM      30.16F
CLARKSDALE       N/A    N/A N/A N/A MISG        N/A
CLEVELAND      CLOUDY    58  58  99 N5        30.15F
GREENWOOD      CLOUDY    62  58  86 CALM      30.15S
GREENVILLE     PTCLDY    62  58  86 NE7       30.14S
OXFORD         MOCLDY    55  55 100 CALM      30.18S
TUNICA         FOG       49  49 100 CALM      30.16F VSB 1/2
WINONA         CLOUDY    61  58  90 NE6       30.15F
$$

MSZ003>006-009-014>017-022>024-029>033-037>039-100400-
NORTHEAST MISSISSIPPI

CITY           SKY/WX    TMP DP  RH WIND       PRES   REMARKS
ABERDEEN       CLOUDY    61  61 100 N5        30.17S
COLUMBUS AFB   CLOUDY    62  59  92 NW5       30.13R
CORINTH        MOCLDY    54  54 100 CALM      30.17S
GOLDN TRIANGLE CLOUDY    63  60  90 N9        30.16R
STARKVILLE     CLOUDY    64  63  94 CALM      30.14S
TUPELO         PTCLDY    60  56  86 CALM      30.16S
$$

MSZ040-058-100400-
CENTRAL MISSISSIPPI

CITY           SKY/WX    TMP DP  RH WIND       PRES   REMARKS
JACKSON INTL   PTCLDY    63  61  93 CALM      30.14R FOG
JACKSON HAWKNS CLEAR     64  62  93 CALM      30.14R FOG
MERIDIAN KEY   FOG       62  62 100 CALM      30.14R VSB 1
MERIDIAN NAS   FOG       61  60  97 CALM      30.14S VSB 1/2
RAYMOND        FOG       61  61 100 CALM      30.13S VSB 1/4
VICKSBURG VKS  CLEAR     63  63 100 CALM      30.12S FOG
$$

MSZ059>079-100400-
SOUTH MISSISSIPPI

CITY           SKY/WX    TMP DP  RH WIND       PRES   REMARKS
BROOKHAVEN       N/A     59  59 100 CALM      30.15S FOG
HATTIESBURG    CLEAR     61  60  97 CALM      30.15R
LAUREL         FOG       61 N/A N/A CALM      30.15R VSB 3/4
MCCOMB         CLEAR     62  59  90 CALM      30.13S FOG
NATCHEZ        PTCLDY    62  61  96 E6        30.14R FOG
PINE BELT      FOG       59  59 100 CALM      30.16R VSB 1/4
$$

MSZ080>082-100400-
COASTAL MISSISSIPPI

CITY           SKY/WX    TMP DP  RH WIND       PRES   REMARKS
BILOXI         FOG       64  64 100 CALM      30.12  VSB 1/2
PASCAGOULA     FOG       58  58 100 CALM      30.15S VSB 3/4
GULFPORT       CLEAR     64  62  93 CALM      30.14S
$$

LAZ007>009-015>016-023>026-100400-
NORTHEAST LOUISIANA

CITY           SKY/WX    TMP DP  RH WIND       PRES   REMARKS
BASTROP        FAIR      62  62  97 E3        30.13F
TALLULAH/VBURG NOT AVBL
VIDALIA          N/A     64  61  90 CALM      30.12R
$$



USA.gov is the U.S. government's official web portal to all federal, state and local government web resources and services.